Location: Newark
(44.5425°N, 10.7801°E)
Time: 21:01:00
(UTC+00:00)

Envisat - Visible Passes

Search period start: 26 January 2020 00:00
Search period end: 05 February 2020 00:00
Orbit: 764 x 766 km, 98.1° (Epoch: 26 January)

Date Brightness Start Highest point End Pass type
(mag) Time Alt. Az. Time Alt. Az. Time Alt. Az.
26 Jan 4.2 05:36:27 10° NNE 05:41:23 47° E 05:46:16 10° S visible
26 Jan 3.0 16:52:31 10° SSE 16:57:34 74° ENE 17:02:39 10° N visible
26 Jan 6.1 18:34:27 10° WSW 18:37:09 14° W 18:39:51 10° NW visible
27 Jan 5.6 05:00:23 10° NE 05:04:21 22° E 05:08:17 10° SE visible
27 Jan 5.0 17:55:33 10° SSW 18:00:00 30° W 18:04:29 10° NNW visible
28 Jan 3.2 06:01:48 10° NNE 06:06:55 82° ESE 06:12:00 10° SSW visible
28 Jan 3.5 17:18:01 10° S 17:23:03 66° WSW 17:28:08 10° NNW visible
29 Jan 4.7 05:25:18 10° NNE 05:30:02 38° E 05:34:44 10° SSE visible
29 Jan 5.9 18:22:18 10° SW 18:25:43 18° W 18:29:10 10° NW visible
30 Jan 6.0 04:49:31 10° NE 04:52:57 18° E 04:56:21 10° SE visible
30 Jan 4.6 17:43:56 10° SSW 17:48:38 38° W 17:53:22 10° NNW visible
31 Jan 3.5 05:50:32 10° NNE 05:55:37 65° ESE 06:00:39 10° S visible
31 Jan 3.1 17:06:40 10° SSE 17:11:45 82° WSW 17:16:52 10° NNW visible
01 Feb 5.1 05:14:11 10° NNE 05:18:40 30° E 05:23:06 10° SSE visible
01 Feb 5.5 18:10:22 10° SW 18:14:19 23° W 18:18:17 10° NW visible
02 Feb 6.2 04:38:50 10° ENE 04:41:31 14° E 04:44:11 10° ESE visible
02 Feb 4.1 17:32:24 10° S 17:37:17 48° W 17:42:12 10° NNW visible
03 Feb 4.0 05:39:19 10° NNE 05:44:17 52° E 05:49:14 10° S visible
03 Feb 3.0 16:55:23 10° SSE 17:00:28 80° ENE 17:05:34 10° N visible
03 Feb 6.3 18:37:47 10° WSW 18:40:06 13° W 18:42:25 10° WNW visible
04 Feb 5.5 05:03:09 10° NE 05:07:17 24° E 05:11:23 10° SSE visible
04 Feb 5.2 17:58:36 10° SSW 18:02:56 28° W 18:07:17 10° NW visible
